Regional Weather Roundup
Issued by NWS

Home | Current Version | Previous Version | Text Only | Print | Product List | Glossary On
Versions: 1 2 3 4 5 6 7 8 9 10 11 12 13 14 15 16 17 18 19 20 21 22 23 24 25 26 27 28 29 30 31 32 33 34 35 36 37 38 39 40 41 42 43 44 45 46 47 48 49 50
000
ASUS44 KMEG 030710
RWRTN
TENNESSEE HOURLY STATE WEATHER ROUNDUP
NATIONAL WEATHER SERVICE MEMPHIS TN
200 AM CDT TUE MAY 03 2016

TNZ002-004-019-021-049-052-054-088>092-030800-
WEST TENNESSEE

CITY           SKY/WX    TMP DP  RH WIND       PRES   REMARKS
MEMPHIS INTL   CLOUDY    61  53  75 N9        29.98F
NWS MEMPHIS      N/A     59 N/A N/A MISG        N/A
JACKSON        CLOUDY    59  53  80 N9        29.97S
DYERSBURG      CLOUDY    55  50  82 N6          N/A
UNION CITY     CLOUDY    55  52  88 N6        29.98F
LEXINGTON      PTCLDY    55  54  94 N5        29.94F
$$

TNZ008-025-027-028-033-062-065-066-030800-
NORTH MIDDLE TENNESSEE

CITY           SKY/WX    TMP DP  RH WIND       PRES   REMARKS
NASHVILLE      CLOUDY    58  53  84 NW6       29.95F
CLARKSVILLE    CLOUDY    56  51  84 NW7       29.96F
SMYRNA         CLOUDY    59  56  89 N6        29.96R
COOKEVILLE     CLOUDY    57  57 100 CALM      29.91F
CROSSVILLE     CLOUDY    58  55  90 NW6       29.93R
$$

TNZ061-075-076-078-094-096-097-030800-
SOUTH MIDDLE TENNESSEE

CITY           SKY/WX    TMP DP  RH WIND       PRES   REMARKS
FAYETTEVILLE   CLOUDY    59  57  94 N7        29.93F
TULLAHOMA      CLOUDY    57  57 100 N7        29.94S
WINCHESTER     CLOUDY    59  57  94 N5        29.93S
MCMINNVILLE    CLOUDY    57  57 100 N3        29.92F
COLUMBIA       CLOUDY   N/A N/A N/A CALM      29.93F
SHELBYVILLE    CLOUDY    61  61 100 NW6       29.94F
$$

TNZ017-018-042-046-047-030800-
NORTHEAST TENNESSEE

CITY           SKY/WX    TMP DP  RH WIND       PRES   REMARKS
TRI CITIES     CLOUDY    60  56  86 CALM      29.89F
$$

TNZ012-013-036-069-073-074-030800-
CENTRAL EAST TENNESSEE

CITY           SKY/WX    TMP DP  RH WIND       PRES   REMARKS
KNOXVILLE      CLOUDY    61  59  93 CALM      29.88F
OAK RIDGE      CLOUDY    61  59  93 CALM      29.90F
GATLINBURG     CLOUDY    61  61 100 NW3       29.89S
MORRISTOWN     CLOUDY    61  59  94 CALM      29.89S
$$

TNZ083-085-099-030800-
SOUTHEAST TENNESSEE

CITY           SKY/WX    TMP DP  RH WIND       PRES   REMARKS
CHATTANOOGA    CLOUDY    65  63  93 CALM      29.88F
$$

SKY/WX REPORTED AS FAIR MEANS FEW OR NO CLOUDS BELOW
12 THOUSAND FEET.





USA.gov is the U.S. government's official web portal to all federal, state and local government web resources and services.